TimeCST,TemperatureF,Dew PointF,Humidity,Sea Level PressureIn,VisibilityMPH,Wind Direction,Wind SpeedMPH,Gust SpeedMPH,PrecipitationIn,Events,Conditions,WindDirDegrees,DateUTC
12:15 AM,34.7,21.9,60,30.17,10.0,East,18.4,-,N/A,,Mostly Cloudy,80,2014-01-23 06:15:00
12:35 AM,34.7,22.1,60,30.19,10.0,ENE,16.1,24.2,N/A,,Mostly Cloudy,60,2014-01-23 06:35:00
12:55 AM,34.7,22.1,60,30.18,10.0,ENE,19.6,24.2,N/A,,Overcast,70,2014-01-23 06:55:00
1:15 AM,34.7,22.1,60,30.17,10.0,ENE,18.4,25.3,N/A,,Overcast,70,2014-01-23 07:15:00
1:35 AM,34.7,21.9,60,30.17,10.0,East,21.9,28.8,N/A,,Overcast,80,2014-01-23 07:35:00
1:55 AM,34.7,21.2,58,30.18,10.0,East,19.6,-,N/A,,Overcast,80,2014-01-23 07:55:00
2:15 AM,34.7,21.6,59,30.18,10.0,East,18.4,23.0,N/A,,Overcast,80,2014-01-23 08:15:00
2:35 AM,32.2,19.0,58,30.16,10.0,East,18.4,32.2,N/A,,Overcast,80,2014-01-23 08:35:00
2:55 AM,32.2,21.2,64,30.21,10.0,NE,19.6,25.3,N/A,,Overcast,50,2014-01-23 08:55:00
3:15 AM,30.0,24.3,79,30.22,10.0,ENE,19.6,27.6,N/A,,Mostly Cloudy,60,2014-01-23 09:15:00
3:35 AM,30.0,25.3,83,30.21,10.0,ENE,17.3,25.3,N/A,,Mostly Cloudy,70,2014-01-23 09:35:00
3:55 AM,30.0,25.0,82,30.23,10.0,ENE,19.6,25.3,N/A,,Scattered Clouds,70,2014-01-23 09:55:00
4:15 AM,30.0,24.4,80,30.24,10.0,East,13.8,25.3,N/A,,Clear,80,2014-01-23 10:15:00
4:35 AM,27.5,21.9,80,30.26,10.0,East,12.7,19.6,N/A,,Clear,80,2014-01-23 10:35:00
4:55 AM,27.5,20.5,75,30.27,10.0,ENE,13.8,-,N/A,,Clear,60,2014-01-23 10:55:00
5:15 AM,30.0,19.0,64,30.28,10.0,ENE,18.4,25.3,N/A,,Clear,70,2014-01-23 11:15:00
5:35 AM,27.5,16.7,64,30.29,10.0,ENE,16.1,20.7,N/A,,Clear,70,2014-01-23 11:35:00
5:55 AM,27.5,17.6,66,30.31,10.0,ENE,16.1,-,N/A,,Clear,60,2014-01-23 11:55:00
6:15 AM,25.3,16.3,69,30.32,10.0,ENE,19.6,-,N/A,,Clear,60,2014-01-23 12:15:00
6:35 AM,24.8,17.1,72,30.34,10.0,NE,19.6,26.5,N/A,,Scattered Clouds,50,2014-01-23 12:35:00
6:55 AM,23.0,14.9,71,30.35,10.0,ENE,16.1,25.3,N/A,,Overcast,60,2014-01-23 12:55:00
7:15 AM,22.6,14.9,72,30.37,10.0,NE,17.3,23.0,N/A,,Overcast,50,2014-01-23 13:15:00
7:35 AM,21.2,12.0,68,30.38,10.0,NE,17.3,25.3,N/A,,Overcast,50,2014-01-23 13:35:00
7:55 AM,21.2,11.7,67,30.39,10.0,ENE,16.1,-,N/A,,Overcast,60,2014-01-23 13:55:00
8:15 AM,21.2,11.5,66,30.41,10.0,NE,19.6,24.2,N/A,,Overcast,50,2014-01-23 14:15:00
8:35 AM,21.0,10.9,65,30.42,10.0,NE,21.9,-,N/A,,Overcast,40,2014-01-23 14:35:00
8:55 AM,19.9,7.2,58,30.44,10.0,NE,21.9,28.8,N/A,,Overcast,50,2014-01-23 14:55:00
9:15 AM,19.9,4.8,52,30.47,10.0,NE,19.6,-,N/A,,Overcast,50,2014-01-23 15:15:00
9:35 AM,19.8,2.8,48,30.48,10.0,NE,19.6,26.5,N/A,,Overcast,40,2014-01-23 15:35:00
9:55 AM,18.7,-1.5,41,30.51,10.0,ENE,21.9,-,N/A,,Overcast,60,2014-01-23 15:55:00
10:15 AM,18.7,-2.4,40,30.52,10.0,NE,19.6,26.5,N/A,,Overcast,50,2014-01-23 16:15:00
10:35 AM,18.0,-5.6,35,30.53,10.0,NE,19.6,-,N/A,,Overcast,50,2014-01-23 16:35:00
10:55 AM,18.3,-4.2,37,30.55,10.0,NE,18.4,21.9,N/A,,Overcast,50,2014-01-23 16:55:00
11:15 AM,17.6,-9.2,30,30.55,10.0,NE,17.3,23.0,N/A,,Overcast,40,2014-01-23 17:15:00
11:35 AM,17.6,-9.0,30,30.57,10.0,NE,17.3,24.2,N/A,,Overcast,50,2014-01-23 17:35:00
11:55 AM,18.7,-8.9,29,30.57,10.0,NE,17.3,25.3,N/A,,Overcast,40,2014-01-23 17:55:00
12:15 PM,18.0,-12.8,25,30.57,10.0,NE,18.4,-,N/A,,Overcast,40,2014-01-23 18:15:00
12:35 PM,19.0,-11.6,25,30.56,10.0,NE,19.6,-,N/A,,Overcast,40,2014-01-23 18:35:00
12:55 PM,19.4,-9.0,28,30.56,10.0,NNE,17.3,-,N/A,,Overcast,30,2014-01-23 18:55:00
1:15 PM,18.7,-14.8,22,30.56,10.0,NE,16.1,21.9,N/A,,Overcast,40,2014-01-23 19:15:00
1:35 PM,19.8,-12.8,23,30.56,10.0,NE,13.8,-,N/A,,Overcast,40,2014-01-23 19:35:00
1:55 PM,19.9,-11.7,24,30.55,10.0,NE,12.7,-,N/A,,Overcast,40,2014-01-23 19:55:00
2:15 PM,20.1,-12.5,23,30.55,10.0,NE,17.3,-,N/A,,Overcast,40,2014-01-23 20:15:00
2:35 PM,21.2,-13.9,21,30.55,10.0,NNE,12.7,17.3,N/A,,Overcast,30,2014-01-23 20:35:00
2:55 PM,21.2,-15.2,19,30.55,10.0,NE,15.0,19.6,N/A,,Overcast,40,2014-01-23 20:55:00
3:15 PM,22.5,-15.2,18,30.55,10.0,NE,15.0,-,N/A,,Overcast,50,2014-01-23 21:15:00
3:35 PM,23.0,-14.1,19,30.55,10.0,NE,12.7,-,N/A,,Overcast,40,2014-01-23 21:35:00
3:55 PM,23.0,-12.8,20,30.56,10.0,NE,17.3,20.7,N/A,,Overcast,50,2014-01-23 21:55:00
4:15 PM,22.8,-14.4,19,30.56,10.0,NE,15.0,20.7,N/A,,Overcast,40,2014-01-23 22:15:00
4:35 PM,22.8,-13.7,19,30.57,10.0,NNE,15.0,19.6,N/A,,Overcast,30,2014-01-23 22:35:00
4:55 PM,22.3,-9.2,25,30.58,10.0,NNE,15.0,-,N/A,,Overcast,20,2014-01-23 22:55:00
5:15 PM,21.2,-2.9,35,30.58,10.0,North,16.1,19.6,N/A,,Overcast,10,2014-01-23 23:15:00
5:35 PM,19.9,0.9,44,30.58,10.0,NNE,13.8,-,N/A,,Overcast,20,2014-01-23 23:35:00
5:55 PM,19.9,3.2,48,30.59,10.0,NNE,13.8,-,N/A,,Overcast,20,2014-01-23 23:55:00
6:15 PM,17.6,2.3,51,30.59,10.0,NNE,10.4,-,N/A,,Mostly Cloudy,30,2014-01-24 00:15:00
6:35 PM,17.4,3.2,54,30.60,10.0,NNE,11.5,-,N/A,,Scattered Clouds,20,2014-01-24 00:35:00
6:55 PM,17.4,4.1,56,30.61,10.0,NNE,9.2,-,N/A,,Clear,20,2014-01-24 00:55:00
7:15 PM,17.2,4.6,58,30.62,10.0,NNE,10.4,-,N/A,,Clear,20,2014-01-24 01:15:00
7:35 PM,16.0,4.5,60,30.62,10.0,NNE,12.7,-,N/A,,Clear,20,2014-01-24 01:35:00
7:55 PM,14.9,4.1,62,30.62,10.0,North,10.4,-,N/A,,Clear,10,2014-01-24 01:55:00
8:35 PM,14.9,5.0,65,30.62,10.0,North,9.2,-,N/A,,Clear,10,2014-01-24 02:35:00
8:55 PM,14.9,5.4,66,30.63,10.0,North,9.2,-,N/A,,Clear,10,2014-01-24 02:55:00
9:15 PM,12.7,3.6,67,30.63,10.0,North,4.6,-,N/A,,Clear,10,2014-01-24 03:15:00
9:55 PM,12.2,3.7,69,30.64,10.0,North,3.5,-,N/A,,Clear,10,2014-01-24 03:55:00
10:15 PM,11.3,3.2,70,30.64,10.0,North,4.6,-,N/A,,Clear,10,2014-01-24 04:15:00
10:35 PM,10.9,3.0,70,30.65,10.0,North,4.6,-,N/A,,Clear,360,2014-01-24 04:35:00
10:55 PM,11.1,2.7,69,30.64,10.0,NNW,3.5,-,N/A,,Clear,340,2014-01-24 04:55:00
11:15 PM,11.1,2.3,68,30.64,10.0,Calm,Calm,-,N/A,,Clear,0,2014-01-24 05:15:00
11:35 PM,9.5,1.4,70,30.64,10.0,Calm,Calm,-,N/A,,Clear,0,2014-01-24 05:35:00
11:55 PM,9.3,1.2,70,30.64,10.0,West,4.6,-,N/A,,Clear,270,2014-01-24 05:55:00